Starlink 33718

operational
NORAD ID: 63476 Int'l Des: 2025-070 Owner: SPXS Country: US Constellation: starlink
LEOCIRCULAR

About Starlink 33718

Description loading...

Live Position

Loading 3D Globe...

Upcoming Passes

Altitude History

Altitude vs Time

uPlot chart will show altitude changes over time

Two-Line Element Set

1 63476U 25070S 25261.09413848 .00024080 00000-0 88129-3 0 9998
2 63476 43.0032 154.2221 0001543 280.8831 79.1847 15.27596297 26580
Epoch: Sep 18, 2025 • Age: 10 hours

Current Status

Altitude 490.2 km
Velocity 7.62 km/s
Sub-Earth Point -29.43°S, 178.81°W
Launch Date Apr 6, 2025
Age 0.4 years
Type internet

Technical Details

Classification Payload
Mass 575.00 kg
Dry Mass 530.00 kg
Total Mass 575.00 kg
Length 0.30 m
Diameter 4.10 m
Span 29.00 m
Shape Box + pan
Manufacturer SPXS
Bus Type Starlink V2MO
Phase Status In Orbit
Owner/State SPXS/US

Large Constellations

Loading constellations...